Location: Gälforsberget
(66.6500°N, 22.4167°E)
Time: 19:55:36
(UTC+00:00)

SJ 16-02 - Pass Details

Date: 11 April 2026
Orbit: 582 x 592 km, 75.0° (Epoch: 19 May)

Event Time Altitude Azimuth Distance (km) Brightness Sun altitude
Rises 21:49:28 0° 320° (NW) 2,838 5.9 -14.4°
Reaches altitude 10° 21:51:43 10° 319° (NW) 1,932 4.8 -14.4°
Maximum altitude 21:56:00 71° 236° (SW) 628 1.3 -14.5°
Enters shadow 21:58:28 24° 156° (SSE) 1,228 2.3 -14.5°
